Severy, KS (67137)

4:09 PM CDT on March 24, 2017 (GMT -0500)
Emporia Municipal | | Change Station

Elev 1207 ft 38.33 °N, 96.19 °W | Updated 16 minutes ago

Overcast
Overcast
69 °F
Feels Like 69 °F
N
8
Wind Variable Wind from ESE

Today
High -- | Low -- °F
--% Chance of Precip.
Yesterday
High -- | Low -- °F
Precip. -- in
Pressure 29.75 in
Visibility 10.0 miles
Clouds Scattered Clouds 3500 ft
Mostly Cloudy 5000 ft
Overcast 11000 ft
Dew Point 56 °F
Humidity 63%
Rainfall 0.00 in
Snow Depth Not available.
7:21 AM 7:40 PM
Waning Crescent, 13% visible
METAR KEMP 242053Z AUTO 11007KT 10SM SCT035 BKN050 OVC110 21/13 A2976 RMK AO2 SLP073 T02060133 58012
Pressure 29.75 in
Visibility 10.0 miles
Clouds Scattered Clouds 3500 ft
Mostly Cloudy 5000 ft
Overcast 11000 ft
Dew Point 56 °F
Humidity 63%
Rainfall 0.00 in
Snow Depth Not available.
7:21 AM 7:40 PM
Waning Crescent, 13% visible
METAR KEMP 242053Z AUTO 11007KT 10SM SCT035 BKN050 OVC110 21/13 A2976 RMK AO2 SLP073 T02060133 58012

Get Severe Weather Alerts

Thanks for signing up!

Be on the lookout for a verification email in your inbox.

You'll start receiving the daily forecast at 8 AM.

×

10-Day Weather Forecast

Almanac

Astronomy

Mar. 24, 2017 Rise Set
Actual Time
Civil Twilight
Nautical Twilight
Astronomical Twilight
Moon
Length of Visible Light
Length of Day
Tomorrow will be .
, % of the Moon is Illuminated

Today's Extremes

State Highs State Lows

Community

WunderPhotos

Upload Photos

1,962,540 photos uploaded!

WunderBlog® & News

Nearby

Air Quality

  Air Quality AQ Index Pollutant
Not available.

Snow Depth

Station Depth Elevation

Earthquake Activity

City Distance Mag. Time & Date
Minimum magnitude displayed is 2.5.

Earthquake Activity

City Distance Mag. Time & Date
Minimum magnitude displayed is 2.5.

Coastal Water Temperatures

Place Temperature

Stations

Nearby Weather Stations

Station Location Temp. Windchill Dew Point Humidity Wind Precip. Elev Updated Type
                   

Watches & Warnings

There are currently no watches in effect.